GW3092 Weather Reports


time (UTC)temp
C
wind
direction
speed
KPH
gust
KPH
rain 1hr
cm
rain 24hr
cm
rain mn
cm
humidity
%
barometer
mb
20260503004538 13 110 4.8 12.9 0.00 0.00 0.00 50 1020.5
20260503003037 13 330 6.4 12.9 0.00 0.00 0.00 51 1020.7
20260503001544 13 98 9.7 12.9 0.00 0.00 0.00 50 1020.7
20260503000059 14 125 6.4 11.3 0.00 0.00 0.00 49 1020.9
20260502234548 14 106 8.0 12.9 0.00 0.00 0.00 48 1021.0
20260502233038 15 131 3.2 8.0 0.00 0.00 0.00 47 1021.1
20260502231539 15 81 3.2 12.9 0.00 0.00 0.00 46 1021.4
20260502230038 15 135 8.0 11.3 0.00 0.00 0.00 45 1021.4
20260502224537 16 144 6.4 9.7 0.00 0.00 0.00 45 1021.5
20260502223044 15 123 3.2 4.8 0.00 0.00 0.00 45 1021.7
20260502221541 16 121 1.6 9.7 0.00 0.00 0.00 45 1021.8
20260502220048 16 152 4.8 8.0 0.00 0.00 0.00 44 1021.8
20260502214539 16 105 3.2 6.4 0.00 0.00 0.00 45 1021.7
20260502213041 16 105 3.2 4.8 0.00 0.00 0.00 45 1021.7
20260502211544 16 105 3.2 6.4 0.00 0.00 0.00 46 1021.9
20260502210046 16 107 3.2 6.4 0.00 0.00 0.00 46 1021.9
20260502204542 16 97 4.8 6.4 0.00 0.00 0.00 47 1021.9
20260502203048 15 112 1.6 9.7 0.00 0.00 0.00 48 1022.0
20260502201545 15 129 3.2 9.7 0.00 0.00 0.00 48 1022.1
20260502200104 15 132 6.4 11.3 0.00 0.00 0.00 49 1022.1
20260502194543 15 136 8.0 11.3 0.00 0.00 0.00 48 1022.0
20260502193043 16 123 6.4 11.3 0.00 0.00 0.00 48 1021.9
20260502191544 15 129 3.2 9.7 0.00 0.00 0.00 49 1021.9
20260502190050 16 148 4.8 9.7 0.00 0.00 0.00 50 1021.8
20260502184545 16 147 3.2 8.0 0.00 0.00 0.00 48 1021.7
20260502183048 16 177 1.6 8.0 0.00 0.00 0.00 49 1021.6
20260502181543 16 144 4.8 9.7 0.00 0.00 0.00 50 1021.6
20260502163048 19 235 9.7 19.3 0.00 0.00 0.00 44 1021.7
20260502161539 20 220 8.0 17.7 0.00 0.00 0.00 43 1021.8
20260502151600 20 240 12.9 20.9 0.00 0.00 0.00 42 1022.2
20260502123042 20 247 12.9 29.0 0.00 0.00 0.00 41 1023.8
20260502121543 21 245 12.9 22.5 0.00 0.00 0.00 42 1024.0
20260502114545 20 229 12.9 25.7 0.00 0.00 0.00 41 1024.2
20260502113050 20 254 14.5 27.4 0.00 0.00 0.00 42 1024.3
20260502111548 20 233 14.5 25.7 0.00 0.00 0.00 42 1024.5
20260502110049 20 220 12.9 27.4 0.00 0.00 0.00 44 1024.6
20260502104544 20 291 12.9 24.1 0.00 0.00 0.00 45 1024.8
20260502103039 19 247 14.5 25.7 0.00 0.00 0.00 44 1024.9
20260502101538 19 294 11.3 22.5 0.00 0.00 0.00 43 1025.1
20260502090106 18 251 11.3 19.3 0.00 0.00 0.00 44 1025.7
20260502070100 17 160 1.6 8.0 0.00 0.00 0.00 45 1026.1
20260502064558 16 171 3.2 8.0 0.00 0.00 0.00 45 1026.2
20260502063050 17 143 3.2 8.0 0.00 0.00 0.00 46 1026.3
20260502061539 16 79 0.0 4.8 0.00 0.00 0.00 46 1026.3
20260502060038 15 0 0.0 4.8 0.00 0.00 0.00 46 1026.3
20260502054548 13 79 3.2 11.3 0.00 0.00 0.00 52 1026.3
20260502053044 13 40 4.8 9.7 0.00 0.00 0.00 53 1026.3
20260502051545 12 330 3.2 8.0 0.00 0.00 0.00 53 1026.3
20260502050043 12 330 6.4 11.3 0.00 0.00 0.00 52 1026.4
20260502044539 11 116 4.8 12.9 0.00 0.00 0.00 54 1026.2
20260502043039 11 330 9.7 12.9 0.00 0.00 0.00 53 1026.2
20260502041548 11 83 11.3 16.1 0.00 0.00 0.00 55 1026.2
20260502040045 11 330 6.4 11.3 0.00 0.00 0.00 53 1026.2
20260502034544 12 330 6.4 12.9 0.00 0.00 0.00 52 1026.2
20260502033044 12 104 4.8 12.9 0.00 0.00 0.00 51 1026.2
20260502031541 12 96 9.7 14.5 0.00 0.00 0.00 49 1026.1
20260502030040 13 330 4.8 6.4 0.00 0.00 0.00 47 1026.3
20260502024546 13 330 3.2 6.4 0.00 0.00 0.00 45 1026.2
20260502023102 13 330 3.2 4.8 0.00 0.00 0.00 45 1026.4
20260502021540 14 330 3.2 6.4 0.00 0.00 0.00 45 1026.3
20260502020038 14 330 1.6 4.8 0.00 0.00 0.00 44 1026.2
20260502014545 13 330 3.2 6.4 0.00 0.00 0.00 44 1026.4
20260502013044 14 330 3.2 4.8 0.00 0.00 0.00 44 1026.5
20260502011544 14 330 3.2 4.8 0.00 0.00 0.00 44 1026.5
20260502010041 14 330 3.2 4.8 0.00 0.00 0.00 44 1026.6